Location: Byszew
(52.1813°N, 19.2693°E)
Time: 14:42:06
(UTC+00:00)

CENTAUR R/B - Pass Details

Date: 03 March 2021
Orbit: 742 x 1446 km, 63.4° (Epoch: 31 March)

Event Time Altitude Azimuth Distance (km) Brightness Sun altitude
Exits shadow 22:41:39 28° 31° (NNE) 2,075 4.4 -44.2°
Drops below altitude 10° 22:45:38 10° 50° (NE) 3,252 5.5 -44.2°
Sets 22:48:52 0° 57° (ENE) 4,319 6.2 -44.3°
